• en France
  • Liste des pays
  • À 7 jours
  • Température de l'eau
  • Carte satellitaire
  • Carte météo
  • Widgets météo
  • user-avatar
    Se connecter

    Météo par heure à Cardiff

    Ce jour, 18 Octobre, Jeudi

    Heure Température Précipitation Vent Pression Humidité
    00:00 +9°C° 0 mm 5 m/s 767 mmHg 88%
    01:00 +9°C° 0 mm 5 m/s 767 mmHg 89%
    02:00 +8°C° 0 mm 5 m/s 767 mmHg 89%
    03:00 +8°C° 0 mm 5 m/s 767 mmHg 90%
    04:00 +8°C° 0 mm 4 m/s 767 mmHg 90%
    05:00 +7°C° 0 mm 4 m/s 767 mmHg 91%
    06:00 +7°C° 0 mm 4 m/s 767 mmHg 92%
    07:00 +8°C° 0 mm 4 m/s 768 mmHg 90%
    08:00 +10°C° 0 mm 4 m/s 768 mmHg 88%
    09:00 +10°C° 0 mm 4 m/s 768 mmHg 86%
    10:00 +12°C° 0 mm 4 m/s 768 mmHg 83%
    11:00 +13°C° 0 mm 4 m/s 768 mmHg 80%
    12:00 +14°C° 0 mm 4 m/s 768 mmHg 77%
    13:00 +14°C° 0 mm 4 m/s 768 mmHg 77%
    14:00 +14°C° 0 mm 4 m/s 767 mmHg 76%
    15:00 +14°C° 0 mm 4 m/s 767 mmHg 76%
    16:00 +13°C° 0 mm 4 m/s 767 mmHg 80%
    17:00 +12°C° 0 mm 3 m/s 767 mmHg 84%
    18:00 +11°C° 0 mm 3 m/s 767 mmHg 87%
    19:00 +11°C° 0 mm 3 m/s 767 mmHg 88%
    20:00 +10°C° 0 mm 3 m/s 767 mmHg 89%
    21:00 +10°C° 0 mm 3 m/s 767 mmHg 90%
    22:00 +9°C° 0 mm 2 m/s 767 mmHg 91%
    23:00 +9°C° 0 mm 2 m/s 767 mmHg 91%

    Demain, 19 Octobre, Vendredi

    Heure Température Précipitation Vent Pression Humidité
    00:00 +9°C° 0 mm 2 m/s 767 mmHg 92%
    01:00 +8°C° 0 mm 2 m/s 767 mmHg 92%
    02:00 +8°C° 0 mm 2 m/s 767 mmHg 92%
    03:00 +9°C° 0 mm 1 m/s 767 mmHg 92%
    04:00 +9°C° 0 mm 1 m/s 767 mmHg 92%
    05:00 +9°C° 0 mm 1 m/s 767 mmHg 92%
    06:00 +9°C° 0 mm 1 m/s 767 mmHg 92%
    07:00 +10°C° 0 mm 1 m/s 767 mmHg 89%
    08:00 +11°C° 0 mm 1 m/s 768 mmHg 86%
    09:00 +12°C° 0 mm 1 m/s 768 mmHg 83%
    10:00 +13°C° 0 mm 1 m/s 768 mmHg 79%
    11:00 +15°C° 0 mm 1 m/s 768 mmHg 74%
    12:00 +16°C° 0 mm 1 m/s 768 mmHg 69%
    13:00 +16°C° 0 mm 1 m/s 768 mmHg 69%
    14:00 +16°C° 0 mm 1 m/s 768 mmHg 68%
    15:00 +18°C° 0 mm 1 m/s 768 mmHg 68%
    16:00 +14°C° 0 mm 0 m/s 768 mmHg 74%
    17:00 +13°C° 0 mm 0 m/s 768 mmHg 79%
    18:00 +11°C° 0 mm 0 m/s 768 mmHg 85%
    19:00 +11°C° 0 mm 0 m/s 769 mmHg 85%
    20:00 +11°C° 0 mm 1 m/s 769 mmHg 86%
    21:00 +11°C° 0 mm 1 m/s 770 mmHg 87%
    22:00 +11°C° 0 mm 1 m/s 770 mmHg 88%
    23:00 +11°C° 0 mm 1 m/s 770 mmHg 88%

    Après-demain, 20 Octobre, Samedi

    Heure Température Précipitation Vent Pression Humidité
    00:00 +10°C° 0 mm 1 m/s 770 mmHg 88%
    01:00 +10°C° 0 mm 1 m/s 770 mmHg 88%
    02:00 +10°C° 0 mm 1 m/s 770 mmHg 88%
    03:00 +10°C° 0 mm 1 m/s 770 mmHg 88%
    04:00 +10°C° 0 mm 1 m/s 771 mmHg 89%
    05:00 +10°C° 0 mm 1 m/s 771 mmHg 89%
    06:00 +9°C° 0 mm 1 m/s 771 mmHg 89%
    07:00 +11°C° 0 mm 1 m/s 771 mmHg 86%
    08:00 +12°C° 0 mm 1 m/s 772 mmHg 83%
    09:00 +13°C° 0 mm 1 m/s 772 mmHg 80%
    10:00 +15°C° 0 mm 1 m/s 772 mmHg 76%
    11:00 +16°C° 0 mm 1 m/s 772 mmHg 71%
    12:00 +17°C° 0 mm 2 m/s 772 mmHg 67%
    13:00 +18°C° 0 mm 1 m/s 772 mmHg 67%
    14:00 +18°C° 0 mm 1 m/s 772 mmHg 67%
    15:00 +19°C° 0 mm 1 m/s 771 mmHg 67%
    16:00 +16°C° 0 mm 1 m/s 771 mmHg 73%
    17:00 +14°C° 0 mm 1 m/s 771 mmHg 79%
    18:00 +13°C° 0 mm 1 m/s 771 mmHg 84%
    19:00 +11°C° 0 mm 0 m/s 772 mmHg 85%
    20:00 +11°C° 0 mm 0 m/s 772 mmHg 85%
    21:00 +11°C° 0 mm 0 m/s 772 mmHg 86%
    22:00 +12°C° 0 mm 1 m/s 772 mmHg 86%
    23:00 +11°C° 0 mm 1 m/s 771 mmHg 86%

    21 Octobre, Dimanche

    Heure Température Précipitation Vent Pression Humidité
    00:00 +11°C° 0 mm 1 m/s 771 mmHg 87%
    01:00 +11°C° 0 mm 1 m/s 771 mmHg 87%
    02:00 +11°C° 0 mm 1 m/s 771 mmHg 87%
    03:00 +11°C° 0 mm 1 m/s 770 mmHg 88%
    04:00 +10°C° 0 mm 1 m/s 770 mmHg 88%
    05:00 +10°C° 0 mm 1 m/s 770 mmHg 88%
    06:00 +10°C° 0 mm 1 m/s 770 mmHg 88%
    07:00 +11°C° 0 mm 1 m/s 770 mmHg 85%
    08:00 +13°C° 0 mm 1 m/s 770 mmHg 82%
    09:00 +14°C° 0 mm 1 m/s 770 mmHg 79%
    10:00 +15°C° 0 mm 1 m/s 770 mmHg 75%
    11:00 +16°C° 0 mm 2 m/s 770 mmHg 70%
    12:00 +18°C° 0 mm 2 m/s 770 mmHg 66%
    13:00 +17°C° 0 mm 2 m/s 770 mmHg 69%
    14:00 +17°C° 0 mm 3 m/s 770 mmHg 72%
    15:00 +17°C° 0 mm 3 m/s 770 mmHg 75%
    16:00 +16°C° 0 mm 3 m/s 770 mmHg 80%
    17:00 +14°C° 0 mm 3 m/s 770 mmHg 86%
    18:00 +13°C° 0 mm 3 m/s 771 mmHg 91%
    19:00 +13°C° 0 mm 3 m/s 771 mmHg 90%
    20:00 +13°C° 0 mm 4 m/s 772 mmHg 90%
    21:00 +13°C° 0 mm 5 m/s 772 mmHg 89%
    22:00 +11°C° 0 mm 6 m/s 773 mmHg 87%
    23:00 +10°C° 0 mm 6 m/s 773 mmHg 85%

    22 Octobre, Lundi

    Heure Température Précipitation Vent Pression Humidité
    00:00 +9°C° 0 mm 6 m/s 773 mmHg 83%
    01:00 +9°C° 0 mm 6 m/s 774 mmHg 83%
    02:00 +8°C° 0 mm 6 m/s 774 mmHg 84%
    03:00 +8°C° 0 mm 6 m/s 775 mmHg 85%
    04:00 +7°C° 0 mm 6 m/s 775 mmHg 85%
    05:00 +7°C° 0 mm 6 m/s 776 mmHg 85%
    06:00 +5°C° 0 mm 6 m/s 776 mmHg 86%
    07:00 +7°C° 0 mm 6 m/s 776 mmHg 81%
    08:00 +7°C° 0 mm 6 m/s 777 mmHg 77%
    09:00 +8°C° 0 mm 6 m/s 777 mmHg 73%
    10:00 +9°C° 0 mm 6 m/s 778 mmHg 69%
    11:00 +10°C° 0 mm 6 m/s 778 mmHg 66%
    12:00 +12°C° 0 mm 5 m/s 778 mmHg 62%
    13:00 +12°C° 0 mm 5 m/s 778 mmHg 63%
    14:00 +12°C° 0 mm 5 m/s 778 mmHg 63%
    15:00 +12°C° 0 mm 4 m/s 777 mmHg 64%
    16:00 +11°C° 0 mm 4 m/s 778 mmHg 70%
    17:00 +10°C° 0 mm 4 m/s 778 mmHg 76%
    18:00 +8°C° 0 mm 3 m/s 778 mmHg 81%
    19:00 +8°C° 0 mm 3 m/s 778 mmHg 83%
    20:00 +7°C° 0 mm 3 m/s 778 mmHg 85%
    21:00 +7°C° 0 mm 3 m/s 778 mmHg 86%
    22:00 +7°C° 0 mm 3 m/s 778 mmHg 87%
    23:00 +7°C° 0 mm 3 m/s 778 mmHg 88%

    23 Octobre, Mardi

    Heure Température Précipitation Vent Pression Humidité
    00:00 +7°C° 0 mm 3 m/s 778 mmHg 89%
    01:00 +7°C° 0 mm 3 m/s 777 mmHg 89%
    02:00 +7°C° 0 mm 3 m/s 777 mmHg 89%
    03:00 +7°C° 0 mm 3 m/s 777 mmHg 90%
    04:00 +6°C° 0 mm 4 m/s 777 mmHg 90%
    05:00 +6°C° 0 mm 4 m/s 776 mmHg 90%
    06:00 +7°C° 0 mm 4 m/s 776 mmHg 90%
    07:00 +8°C° 0 mm 4 m/s 776 mmHg 88%
    08:00 +9°C° 0 mm 5 m/s 776 mmHg 85%
    09:00 +10°C° 0 mm 5 m/s 776 mmHg 82%
    10:00 +12°C° 0 mm 5 m/s 776 mmHg 79%
    11:00 +12°C° 0 mm 5 m/s 775 mmHg 76%
    12:00 +13°C° 0 mm 5 m/s 775 mmHg 74%
    13:00 +13°C° 0 mm 5 m/s 775 mmHg 74%
    14:00 +13°C° 0 mm 5 m/s 774 mmHg 73%
    15:00 +13°C° 0 mm 5 m/s 774 mmHg 73%
    16:00 +12°C° 0 mm 4 m/s 774 mmHg 79%
    17:00 +11°C° 0 mm 4 m/s 774 mmHg 84%
    18:00 +8°C° 0 mm 4 m/s 774 mmHg 89%
    19:00 +8°C° 0 mm 4 m/s 774 mmHg 90%
    20:00 +8°C° 0 mm 4 m/s 774 mmHg 90%
    21:00 +7°C° 0 mm 4 m/s 774 mmHg 91%
    22:00 +7°C° 0 mm 4 m/s 774 mmHg 90%
    23:00 +8°C° 0 mm 3 m/s 774 mmHg 90%
    Voir plus